TimeCST,TemperatureF,Dew PointF,Humidity,Sea Level PressureIn,VisibilityMPH,Wind Direction,Wind SpeedMPH,Gust SpeedMPH,PrecipitationIn,Events,Conditions,WindDirDegrees,DateUTC
12:15 AM,48.2,46.4,93,29.80,0.5,SW,3.5,-,N/A,Fog,Fog,220,2012-12-02 06:15:00
12:35 AM,48.2,46.4,93,29.80,0.5,SSW,3.5,-,N/A,Fog,Fog,210,2012-12-02 06:35:00
12:55 AM,48.2,46.4,93,29.80,0.8,Calm,Calm,-,N/A,,Overcast,0,2012-12-02 06:55:00
1:15 AM,48.2,46.4,93,29.81,1.0,WSW,3.5,-,N/A,,Overcast,240,2012-12-02 07:15:00
1:55 AM,50.0,46.4,87,29.81,4.0,West,5.8,-,N/A,,Overcast,280,2012-12-02 07:55:00
2:15 AM,50.0,46.4,87,29.82,4.0,West,6.9,-,N/A,,Overcast,270,2012-12-02 08:15:00
2:35 AM,50.0,46.4,87,29.83,4.0,West,4.6,-,N/A,,Overcast,280,2012-12-02 08:35:00
2:55 AM,48.2,46.4,93,29.83,4.0,WSW,3.5,-,N/A,,Overcast,250,2012-12-02 08:55:00
3:15 AM,48.2,46.4,93,29.82,3.0,Calm,Calm,-,N/A,,Overcast,0,2012-12-02 09:15:00
3:35 AM,46.4,44.6,93,29.83,2.5,Calm,Calm,-,N/A,,Overcast,0,2012-12-02 09:35:00
3:55 AM,48.2,46.4,93,29.84,3.0,West,6.9,-,N/A,,Overcast,280,2012-12-02 09:55:00
4:15 AM,48.2,44.6,87,29.84,5.0,West,10.4,-,N/A,,Overcast,280,2012-12-02 10:15:00
4:55 AM,46.4,42.8,87,29.86,5.0,WNW,6.9,-,N/A,,Overcast,300,2012-12-02 10:55:00
5:15 AM,46.4,41.0,81,29.87,5.0,WNW,8.1,-,N/A,,Haze,290,2012-12-02 11:15:00
5:35 AM,46.4,41.0,81,29.88,5.0,West,3.5,-,N/A,,Haze,280,2012-12-02 11:35:00
5:55 AM,44.6,39.2,81,29.88,5.0,West,5.8,-,N/A,,Haze,280,2012-12-02 11:55:00
6:15 AM,42.8,39.2,87,29.88,4.0,Calm,Calm,-,N/A,,Mostly Cloudy,0,2012-12-02 12:15:00
6:35 AM,42.8,37.4,81,29.90,4.0,WNW,5.8,-,N/A,,Scattered Clouds,300,2012-12-02 12:35:00
6:55 AM,42.8,37.4,81,29.90,4.0,WNW,3.5,-,N/A,,Mostly Cloudy,300,2012-12-02 12:55:00
7:15 AM,42.8,39.2,87,29.92,4.0,WNW,5.8,-,N/A,,Overcast,300,2012-12-02 13:15:00
7:35 AM,42.8,37.4,81,29.92,3.0,WNW,3.5,-,N/A,,Haze,300,2012-12-02 13:35:00
7:55 AM,42.8,37.4,81,29.93,4.0,West,4.6,-,N/A,,Haze,280,2012-12-02 13:55:00
8:15 AM,42.8,37.4,81,29.94,4.0,NW,8.1,-,N/A,,Haze,320,2012-12-02 14:15:00
8:35 AM,42.8,37.4,81,29.96,3.0,WNW,5.8,-,N/A,,Haze,290,2012-12-02 14:35:00
8:55 AM,42.8,37.4,81,29.96,3.0,WNW,4.6,-,N/A,,Haze,300,2012-12-02 14:55:00
9:15 AM,42.8,37.4,81,29.97,3.0,WNW,4.6,-,N/A,,Haze,300,2012-12-02 15:15:00
9:35 AM,42.8,37.4,81,29.97,3.0,NW,6.9,-,N/A,,Haze,320,2012-12-02 15:35:00
9:55 AM,42.8,37.4,81,29.98,3.0,NNW,6.9,-,N/A,,Haze,330,2012-12-02 15:55:00
10:15 AM,42.8,37.4,81,29.98,3.0,NW,4.6,-,N/A,,Haze,310,2012-12-02 16:15:00
10:35 AM,42.8,37.4,81,29.99,3.0,NNW,9.2,-,N/A,,Haze,330,2012-12-02 16:35:00
10:55 AM,42.8,37.4,81,29.99,4.0,WNW,5.8,-,N/A,,Haze,290,2012-12-02 16:55:00
11:15 AM,42.8,37.4,81,29.99,4.0,WNW,5.8,-,N/A,,Haze,300,2012-12-02 17:15:00
11:35 AM,42.8,37.4,81,29.99,4.0,WNW,8.1,-,N/A,,Haze,290,2012-12-02 17:35:00
11:55 AM,42.8,37.4,81,29.99,4.0,NW,4.6,-,N/A,,Haze,320,2012-12-02 17:55:00
12:15 PM,42.8,37.4,81,29.99,4.0,North,4.6,-,N/A,,Haze,10,2012-12-02 18:15:00
12:35 PM,42.8,37.4,81,29.99,4.0,Calm,Calm,-,N/A,,Haze,0,2012-12-02 18:35:00
12:55 PM,42.8,37.4,81,29.99,4.0,Calm,Calm,-,N/A,,Haze,0,2012-12-02 18:55:00
1:15 PM,44.6,37.4,76,30.00,4.0,Calm,Calm,-,N/A,,Haze,0,2012-12-02 19:15:00
1:35 PM,44.6,37.4,76,30.00,4.0,WSW,3.5,-,N/A,,Haze,250,2012-12-02 19:35:00
1:55 PM,42.8,37.4,81,29.99,4.0,WSW,5.8,-,N/A,,Haze,250,2012-12-02 19:55:00
2:15 PM,42.8,37.4,81,29.99,4.0,Calm,Calm,-,N/A,,Haze,0,2012-12-02 20:15:00
2:35 PM,42.8,37.4,81,29.99,4.0,WNW,3.5,-,N/A,,Haze,290,2012-12-02 20:35:00
2:55 PM,42.8,37.4,81,29.99,4.0,WSW,3.5,-,N/A,,Haze,240,2012-12-02 20:55:00
3:15 PM,42.8,37.4,81,30.00,4.0,Calm,Calm,-,N/A,,Haze,0,2012-12-02 21:15:00
3:35 PM,42.8,37.4,81,30.02,4.0,Calm,Calm,-,N/A,,Haze,0,2012-12-02 21:35:00
3:55 PM,42.8,37.4,81,30.02,4.0,Calm,Calm,-,N/A,,Haze,0,2012-12-02 21:55:00
4:15 PM,42.8,37.4,81,30.03,4.0,Calm,Calm,-,N/A,,Haze,0,2012-12-02 22:15:00
4:35 PM,42.8,37.4,81,30.03,5.0,Calm,Calm,-,N/A,,Haze,0,2012-12-02 22:35:00
4:55 PM,41.0,37.4,87,30.03,5.0,Calm,Calm,-,N/A,,Overcast,0,2012-12-02 22:55:00
5:15 PM,41.0,37.4,87,30.04,4.0,Calm,Calm,-,N/A,,Overcast,0,2012-12-02 23:15:00
5:35 PM,41.0,37.4,87,30.05,5.0,Calm,Calm,-,N/A,,Overcast,0,2012-12-02 23:35:00
5:55 PM,41.0,37.4,87,30.04,4.0,Calm,Calm,-,N/A,,Overcast,0,2012-12-02 23:55:00
6:15 PM,41.0,37.4,87,30.04,4.0,Calm,Calm,-,N/A,,Overcast,0,2012-12-03 00:15:00
6:35 PM,41.0,37.4,87,30.04,4.0,ESE,3.5,-,N/A,,Overcast,120,2012-12-03 00:35:00
6:55 PM,41.0,37.4,87,30.04,4.0,SSE,5.8,-,N/A,,Overcast,160,2012-12-03 00:55:00
7:15 PM,41.0,37.4,87,30.03,4.0,SSE,4.6,-,N/A,,Overcast,160,2012-12-03 01:15:00
7:35 PM,41.0,37.4,87,30.04,4.0,SE,4.6,-,N/A,,Overcast,140,2012-12-03 01:35:00
7:55 PM,41.0,37.4,87,30.03,4.0,South,6.9,-,N/A,,Overcast,170,2012-12-03 01:55:00
8:15 PM,41.0,37.4,87,30.03,3.0,SSE,5.8,-,N/A,,Overcast,150,2012-12-03 02:15:00
8:35 PM,41.0,37.4,87,30.04,3.0,ESE,5.8,-,N/A,,Overcast,120,2012-12-03 02:35:00
8:55 PM,41.0,37.4,87,30.03,3.0,ESE,6.9,-,N/A,,Overcast,120,2012-12-03 02:55:00
9:15 PM,41.0,37.4,87,30.04,3.0,SE,6.9,-,N/A,,Overcast,130,2012-12-03 03:15:00
9:35 PM,41.0,37.4,87,30.05,3.0,SE,4.6,-,N/A,,Overcast,130,2012-12-03 03:35:00
9:55 PM,41.0,37.4,87,30.05,2.5,SE,5.8,-,N/A,,Overcast,130,2012-12-03 03:55:00
10:15 PM,41.0,37.4,87,30.05,2.5,SE,6.9,-,N/A,,Overcast,130,2012-12-03 04:15:00
10:35 PM,41.0,37.4,87,30.05,2.0,ESE,6.9,-,N/A,,Overcast,120,2012-12-03 04:35:00
10:55 PM,41.0,37.4,87,30.04,1.5,SE,4.6,-,N/A,,Overcast,140,2012-12-03 04:55:00
11:15 PM,41.0,37.4,87,30.03,0.5,ESE,8.1,-,N/A,Fog,Fog,120,2012-12-03 05:15:00
11:35 PM,41.0,37.4,87,30.03,0.5,SE,6.9,-,N/A,Fog,Fog,130,2012-12-03 05:35:00
11:55 PM,41.0,37.4,87,30.02,0.5,SSE,5.8,-,N/A,Fog,Fog,150,2012-12-03 05:55:00